FW3145 Weather Reports


Display with metric or nautical units.
time (UTC)temp
F
wind
direction
speed
MPH
gust
MPH
rain 1hr
in
rain 24hr
in
rain mn
in
humidity
%
barometer
mb
20260831064514 78 136 0.0 0.0 0.00 0.00 0.00 75 1012.1
20260831063015 77 61 0.0 0.0 0.00 0.00 0.00 73 1012.2
20260831061508 76 60 0.0 0.0 0.00 0.00 0.00 73 1012.2
20260831060005 76 315 0.0 0.0 0.00 0.00 0.00 73 1012.2
20260831054501 75 315 0.0 0.0 0.00 0.00 0.00 75 1012.2
20260831053058 76 315 0.0 0.0 0.00 0.00 0.00 74 1012.1
20260831051557 76 315 0.0 0.0 0.00 0.00 0.00 74 1012.0
20260831050057 76 314 0.0 0.0 0.00 0.00 0.00 75 1011.9
20260831044601 75 315 0.0 0.0 0.00 0.00 0.00 75 1011.8
20260831043053 75 315 0.0 0.0 0.00 0.00 0.00 75 1011.7
20260831041606 74 314 0.0 0.0 0.00 0.00 0.00 77 1011.7
20260831040051 74 326 0.0 0.0 0.00 0.00 0.00 78 1011.7
20260831034553 75 326 0.0 0.0 0.00 0.00 0.00 79 1011.6
20260831033048 75 326 0.0 0.0 0.00 0.00 0.00 79 1011.7
20260831031546 76 360 0.0 0.0 0.00 0.00 0.00 79 1011.7
20260831030044 76 355 0.0 0.0 0.00 0.00 0.00 79 1011.7
20260831024544 76 355 0.0 0.0 0.00 0.00 0.00 79 1012.0
20260831023042 76 355 0.0 0.0 0.00 0.00 0.00 79 1012.0
20260831021547 76 355 0.0 0.0 0.00 0.00 0.00 80 1012.0
20260831020041 77 39 0.0 0.0 0.00 0.00 0.00 80 1012.0
20260831014540 76 39 0.0 0.0 0.00 0.00 0.00 80 1012.0
20260831013045 77 42 0.0 0.0 0.00 0.00 0.00 79 1012.1
20260831011545 76 35 0.0 0.0 0.00 0.00 0.00 79 1012.2
20260831010051 77 25 0.0 0.0 0.00 0.00 0.00 79 1012.2
20260831004536 77 28 0.0 0.0 0.00 0.00 0.00 79 1012.2
20260831003035 77 28 0.0 0.0 0.00 0.00 0.00 79 1012.2
20260831001539 77 28 0.0 0.0 0.00 0.00 0.00 79 1012.2
20260831000032 78 28 0.0 0.0 0.00 0.00 0.00 79 1012.1
20260830234531 78 32 0.0 0.0 0.00 0.00 0.00 78 1012.0
20260830233030 78 30 0.0 0.0 0.00 0.00 0.00 79 1011.9
20260830231531 78 47 0.0 0.0 0.00 0.00 0.00 78 1012.0
20260830230029 78 360 0.0 0.0 0.00 0.00 0.00 78 1012.0
20260830224528 78 355 0.0 0.0 0.00 0.00 0.00 78 1012.0
20260830223026 78 355 0.0 0.0 0.00 0.00 0.00 78 1012.0
20260830221523 79 44 0.0 0.0 0.00 0.00 0.00 78 1011.9
20260830220031 79 19 0.0 0.0 0.00 0.00 0.00 77 1011.8
20260830214521 79 40 0.0 0.0 0.00 0.00 0.00 77 1011.8
20260830213021 78 78 0.0 0.0 0.00 0.00 0.00 77 1011.7
20260830211521 78 35 0.0 0.0 0.00 0.00 0.00 78 1011.6
20260830210020 77 46 0.0 0.0 0.00 0.00 0.00 79 1011.5
20260830204531 77 27 0.0 0.0 0.00 0.00 0.00 79 1011.5
20260830203019 77 35 0.0 0.0 0.00 0.00 0.00 79 1011.4
20260830201519 77 296 0.0 0.0 0.00 0.00 0.00 79 1011.4
20260830200018 77 296 0.0 0.0 0.00 0.00 0.00 79 1011.2
20260830194518 78 296 0.0 0.0 0.00 0.00 0.00 79 1011.1
20260830193017 78 296 0.0 0.0 0.00 0.00 0.00 79 1010.9
20260830191517 79 296 0.0 0.0 0.00 0.00 0.00 79 1010.9
20260830190017 79 289 0.0 0.0 0.00 0.00 0.00 78 1010.8
20260830184515 80 289 0.0 0.0 0.00 0.00 0.00 78 1010.6
20260830183014 79 334 0.0 0.0 0.00 0.00 0.00 78 1010.3
20260830181514 80 350 0.0 0.0 0.00 0.00 0.00 77 1010.2
20260830180013 81 11 0.0 0.0 0.00 0.00 0.00 77 1010.1
20260830174646 83 15 0.0 0.0 0.00 0.00 0.00 76 1009.9
20260830173011 84 15 0.0 0.0 0.00 0.00 0.00 75 1009.7
20260830171512 85 155 0.0 0.0 0.00 0.00 0.00 74 1009.7
20260830170010 86 232 0.0 0.0 0.00 0.00 0.00 73 1009.6
20260830164515 86 232 0.0 0.0 0.00 0.00 0.00 74 1009.5
20260830163009 86 228 0.0 0.0 0.00 0.00 0.00 73 1009.6
20260830161508 87 229 0.0 0.0 0.00 0.00 0.00 73 1009.5
20260830160010 86 115 0.0 0.0 0.00 0.00 0.00 73 1009.5
20260830154510 86 142 0.0 0.0 0.00 0.00 0.00 73 1009.6
20260830153015 86 213 0.0 0.0 0.00 0.00 0.00 74 1009.7
20260830151516 85 212 0.0 0.0 0.00 0.00 0.00 72 1009.7
20260830150006 86 81 0.0 0.0 0.00 0.00 0.00 70 1009.5
20260830144505 85 304 0.0 0.0 0.00 0.00 0.00 70 1009.8
20260830143007 85 302 0.0 0.0 0.00 0.00 0.00 70 1009.5
20260830141504 85 314 0.0 0.0 0.00 0.00 0.00 69 1009.9
20260830140004 86 304 0.0 0.0 0.00 0.00 0.00 68 1009.8
20260830134511 88 53 0.0 0.0 0.00 0.00 0.00 67 1009.8
20260830133002 89 53 0.0 0.0 0.00 0.00 0.00 65 1009.8
20260830131610 90 53 0.0 0.0 0.00 0.00 0.00 60 1009.7
20260830130100 90 38 0.0 0.0 0.00 0.00 0.00 59 1009.7
20260830124559 91 27 0.0 0.0 0.00 0.00 0.00 55 1009.9
20260830123059 93 144 0.0 0.0 0.00 0.00 0.00 52 1010.0
20260830121556 94 150 0.0 0.0 0.00 0.00 0.00 52 1010.0
20260830120101 93 92 0.0 0.0 0.00 0.00 0.00 48 1010.2
20260830114551 92 58 0.0 0.0 0.00 0.00 0.00 53 1010.3
20260830113053 93 80 0.0 0.0 0.00 0.00 0.00 48 1010.4
20260830111547 93 96 0.0 0.0 0.00 0.00 0.00 47 1010.6
20260830110047 93 238 0.0 0.0 0.00 0.00 0.00 51 1010.7
20260830104542 92 145 0.0 0.0 0.00 0.00 0.00 48 1010.9
20260830103042 92 165 0.0 0.0 0.00 0.00 0.00 46 1011.1
20260830101538 91 182 0.0 0.0 0.00 0.00 0.00 45 1011.2
20260830100031 90 189 0.0 0.0 0.00 0.00 0.00 55 1011.3
20260830094528 89 180 0.0 0.0 0.00 0.00 0.00 59 1011.2
20260830093022 88 182 0.0 0.0 0.00 0.00 0.00 60 1011.4
20260830091520 87 217 0.0 0.0 0.00 0.00 0.00 61 1011.4
20260830090015 86 171 0.0 0.0 0.00 0.00 0.00 63 1011.5
20260830084512 85 175 0.0 0.0 0.00 0.00 0.00 64 1011.5
20260830083008 85 197 0.0 0.0 0.00 0.00 0.00 66 1011.4
20260830081503 84 202 0.0 0.0 0.00 0.00 0.00 69 1011.5
20260830080059 82 193 0.0 0.0 0.00 0.00 0.00 71 1011.4
20260830074558 81 147 0.0 0.0 0.00 0.00 0.00 73 1011.5
20260830073050 80 143 0.0 0.0 0.00 0.00 0.00 76 1011.5
20260830071558 79 182 0.0 0.0 0.00 0.00 0.00 77 1011.4
20260830070041 77 182 0.0 0.0 0.00 0.00 0.00 79 1011.4